#timestamp,LO_Frequency,Hit,StdDev 
1506751215.3,286047002.1,N
1506751235.1,286047004.2,N
1506751255.9,286047001.7,N
1506751275.7,286047002.6,N
1506751295.5,286047001.4,N
1506751315.4,286046998.1,N
1506751335.2,286047000.7,N
1506751355.0,286046998.2,N
1506751355.9,286046998.2,N
1506751375.8,286046999.6,N
1506751395.6,286047000.3,N
1506751415.4,286047000.5,N
1506751435.2,286047000.8,N
1506751455.1,286047002.8,N
1506751456.0,286047002.8,N
1506751475.8,286047002.7,N
1506751495.6,286047002.2,N
1506751515.5,286047002.3,N
1506751535.3,286047003.1,N
1506751555.1,286046999.9,N
1506751575.9,286046997.5,N
1506751595.7,286046996.5,N
1506751615.5,286046997.8,N
1506751635.4,286046993.7,Y
1506751655.2,286046990.1,P
1506751675.0,286046996.1,N
1506751675.9,286046996.1,N
1506751695.8,286047000.2,N
1506751715.6,286047007.0,N
1506751735.4,286047012.5,N
1506751755.3,286047014.5,N
1506751775.1,286047019.9,N
1506751776.0,286047019.9,N
1506751795.8,286047023.8,N
1506751815.7,286047024.4,N
1506751835.5,286047026.1,N
1506751855.3,286047029.0,N
1506751875.1,286047034.6,N
1506751895.9,286047037.6,N
1506751915.7,286047041.2,N
1506751935.5,286047041.1,N
1506751955.4,286047040.6,N
1506751975.2,286047039.8,N
1506751995.0,286047040.7,N
1506751995.9,286047040.7,N
1506752015.8,286047042.8,N
1506752035.6,286047042.5,N
1506752055.4,286047042.3,N
1506752075.3,286047041.2,N
1506752095.1,286047044.4,N
1506752096.0,286047044.4,N
1506752115.8,286047043.5,N
1506752135.7,286047046.3,N
1506752155.5,286047048.9,N
1506752175.3,286047048.6,N
1506752195.2,286047049.7,Y
1506752215.9,286047019.7,P
1506752235.7,286047019.5,P
1506752255.6,286047021.4,P
1506752275.4,286047021.0,Y
1506752295.2,286046996.6,P
1506752315.1,286046996.7,N
1506752316.0,286046996.7,N
1506752335.8,286047000.9,N
1506752355.6,286047002.7,N
1506752375.4,286047002.2,N
1506752395.3,286046999.7,N
1506752415.1,286047000.6,N
1506752435.8,286046998.7,N
1506752455.7,286046996.8,N
1506752475.5,286046999.5,N
1506752495.3,286046999.5,N
1506752515.2,286047001.0,N
1506752535.9,286046998.7,N
1506752555.7,286046997.2,N
1506752575.6,286046997.7,N
1506752595.4,286046999.4,N
1506752615.2,286047001.2,N
1506752635.0,286046998.2,N
1506752636.0,286046998.2,N
1506752655.8,286046997.2,N
1506752675.6,286046999.5,N
1506752695.4,286047001.1,N
1506752715.3,286046998.4,N
1506752735.1,286047000.4,N
1506752755.8,286047000.7,N
1506752775.7,286047001.2,N
1506752795.5,286046999.9,N
1506752815.3,286047002.2,N
1506752835.2,286046999.1,N
1506752855.9,286046995.3,N
1506752875.7,286046999.3,N
1506752895.6,286046996.2,N
1506752915.4,286046994.3,Y
1506752935.2,286046992.2,P
1506752955.1,286046991.8,N
1506752956.0,286046991.8,N
1506752975.8,286046992.2,N
1506752995.6,286046992.9,N
1506753015.5,286046990.5,Y
1506753035.3,286046995.1,P
1506753055.1,286046995.3,P
1506753075.9,286046993.4,P
1506753095.7,286046996.4,Y
1506753115.5,286046999.9,P
1506753135.4,286047001.9,N
1506753155.2,286047001.9,N
1506753175.0,286046999.4,N
1506753175.9,286046999.4,N
1506753195.8,286047000.5,N
1506753215.6,286047004.2,N
1506753235.4,286047004.1,N
1506753255.2,286047005.8,N
1506753275.1,286047004.9,N
1506753276.0,286047004.9,N
1506753295.8,286047006.1,N
1506753315.6,286047004.6,N
1506753335.5,286047002.8,N
1506753355.3,286047003.8,N
1506753375.1,286047002.5,N
1506753395.9,286047004.0,N
1506753415.7,286047003.1,N
1506753435.5,286047003.4,N
1506753455.4,286047005.2,N
1506753475.2,286047005.1,N
1506753495.0,286047007.2,N
1506753495.9,286047007.2,N
1506753515.8,286047004.7,N
1506753535.6,286047004.7,N
1506753555.4,286047004.1,N
1506753575.2,286047004.0,N
1506753595.1,286047002.9,N
1506753596.0,286047002.9,N
1506753615.8,286047005.1,N
1506753635.6,286047003.1,N
1506753655.5,286047002.2,N
1506753675.3,286047003.0,N
1506753695.1,286047007.5,Y
1506753715.9,286047000.2,P
1506753735.7,286046996.5,N
1506753755.5,286046996.5,N
1506753775.4,286046994.1,N
1506753795.2,286046993.7,N
1506753815.0,286046993.0,N
1506753815.9,286046993.0,N
1506753835.8,286046993.1,N
1506753855.6,286046988.7,Y
1506753875.4,286046994.9,P
1506753895.3,286046994.2,P
1506753915.1,286046993.4,P
1506753935.8,286046999.2,N
1506753955.7,286046999.2,N
1506753975.5,286046997.9,N
1506753995.3,286046999.6,N
1506754015.2,286046998.9,N
1506754035.9,286046999.3,N
1506754055.7,286047000.5,N
1506754075.6,286046997.0,N
1506754095.4,286046998.2,N
1506754115.2,286046998.8,N
1506754135.0,286046999.5,N
1506754136.0,286046999.5,N
1506754155.8,286047001.0,N
1506754175.6,286047002.8,N
1506754195.4,286046999.8,N
1506754215.3,286046998.3,N
1506754235.1,286047002.0,N
1506754255.8,286047000.3,N
1506754275.7,286047006.7,N
1506754295.5,286047005.7,N
1506754315.3,286047005.8,N
1506754335.2,286047004.2,N
1506754355.9,286047001.6,N
1506754375.7,286047000.2,N
1506754395.6,286047003.2,N
1506754415.4,286047005.1,N
1506754435.2,286047004.3,N
1506754455.0,286047000.8,N
1506754456.0,286047000.8,N
1506754475.8,286046999.7,N
1506754495.6,286046999.0,N
1506754515.4,286046999.0,N
1506754535.3,286046999.0,N
1506754555.1,286047001.1,N
1506754575.8,286046996.5,N
1506754595.7,286046998.1,N
1506754615.5,286047003.9,N
1506754635.3,286047000.6,N
1506754655.2,286047000.2,N
1506754675.9,286047001.2,N
1506754695.7,286046998.5,N
1506754715.6,286047001.5,N
1506754735.4,286047003.5,N
1506754755.2,286046998.1,N
1506754775.1,286046998.5,N
1506754776.0,286046998.5,N
1506754795.8,286047003.1,N
